Home   Weather   Santa Barbara   Past weeks

Flag for USA Past Weather in Santa Barbara, California, USA — Yesterday and Last 2 Weeks

Now
67 °F

Clear.


Feels Like: 67 °F
Forecast: 60 / 79 °F
Wind: No wind

Location: Santa Barbara Municipal Airport

Current Time: Sep 27, 2016 at 10:20:40 PM

Latest Report: Sep 27, 2016 at 9:53 PM


Visibility: 10 mi

Pressure: 29.86 "Hg

Humidity: 61%

Dew Point: 53 °F

Location of Santa BarbaraLocation

Past Weather in Santa Barbara — Graph

°F

Santa Barbara Temperature Yesterday

Maximum temperature yesterday: 99 °F (at 1:53 PM)
Minimum temperature yesterday: 58 °F (at 5:53 AM)
Average temperature yesterday: 80 °F

High & Low Weather Summary for the Past Weeks

 TemperatureHumidityPressure
High99 °F (Sep 26, 1:53 PM)100% (Sep 16, 4:53 AM)30.08 "Hg (Sep 16, 4:53 AM)
Low49 °F (Sep 14, 3:53 AM)8% (Sep 22, 12:53 PM)29.80 "Hg (Sep 21, 7:53 PM)
Average68 °F67%29.93 "Hg
* Reported Sep 12 8:53 PM — Sep 27 8:53 PM, Santa Barbara, Weather by CustomWeather, © 2016

Note: Actual official high and low records may vary slightly from our data, if they occured in-between our weather recording intervals... More about our weather records

Advertising

Santa Barbara Weather History for the Previous 24 Hours

Scroll right to see more
 ConditionsComfort  
Time TempWeatherWind HumidityBarometerVisibility
8:53 PM
Tue, Sep 27
70 °FClear.No wind66%29.85 "Hg10 mi
7:53 PM72 °FClear.3 mph59%29.84 "Hg10 mi
6:53 PM77 °FClear.No wind47%29.82 "Hg10 mi
5:53 PM80 °FSunny.No wind41%29.83 "Hg10 mi
4:53 PM81 °FSunny.9 mph44%29.82 "Hg10 mi
3:53 PM84 °FSunny.13 mph35%29.82 "Hg10 mi
2:53 PM88 °FSunny.15 mph25%29.82 "Hg10 mi
1:53 PM86 °FSunny.9 mph27%29.82 "Hg10 mi
12:53 PM85 °FSunny.9 mph29%29.83 "Hg10 mi
11:53 AM87 °FSunny.5 mph21%29.83 "Hg10 mi
10:53 AM89 °FSunny.6 mph17%29.83 "Hg10 mi
9:53 AM86 °FSunny.7 mph20%29.84 "Hg10 mi
8:53 AM83 °FSunny.6 mph30%29.84 "Hg10 mi
7:53 AM71 °FSunny.No wind66%29.84 "Hg10 mi
6:53 AM62 °FSunny.5 mph80%29.81 "Hg10 mi
5:53 AM64 °FClear.5 mph68%29.81 "Hg10 mi
4:53 AM65 °FClear.N/A63%29.81 "Hg10 mi
3:53 AM67 °FClear.3 mph49%29.81 "Hg10 mi
2:53 AM68 °FClear.No wind47%29.82 "Hg10 mi
1:53 AM69 °FClear.5 mph55%29.84 "Hg10 mi
12:53 AM71 °FClear.5 mph61%29.85 "Hg10 mi
11:53 PM
Mon, Sep 26
83 °FClear.No wind15%29.85 "Hg10 mi
10:53 PM84 °FClear.6 mph15%29.85 "Hg10 mi
Weather by CustomWeather, © 2016

See weather overviewHow to use our weather pages